Location: Invercargill
(46.4000°S, 168.3500°E)
Time: 15:58:55
(UTC+13:00)

USA 186 - Pass Details

Date: 24 January 2019
Orbit: 262 x 443 km, 96.9° (Epoch: 04 October)

Event Time Altitude Azimuth Distance (km) Brightness Sun altitude
Rises 22:53:20 0° 179° (S) 2,292 6.2 -12.2°
Reaches altitude 10° 22:55:34 10° 192° (SSW) 1,398 5.4 -12.5°
Maximum altitude 22:58:04 25° 250° (WSW) 791 3.9 -12.8°
Drops below altitude 10° 23:00:25 10° 307° (NW) 1,309 4.3 -13.0°
Sets 23:02:26 0° 321° (NW) 2,106 5.2 -13.3°
